Year,Month,Day,Hour,Minute,Value (Times are PST for temperature in C)
2015,10,23,00,00,4.90
2015,10,23,00,01,4.90
2015,10,23,00,02,4.90
2015,10,23,00,03,5.00
2015,10,23,00,04,5.00
2015,10,23,00,05,5.10
2015,10,23,00,06,5.10
2015,10,23,00,07,5.10
2015,10,23,00,08,5.10
2015,10,23,00,09,5.10
2015,10,23,00,10,5.10
2015,10,23,00,11,5.10
2015,10,23,00,12,5.10
2015,10,23,00,13,5.00
2015,10,23,00,14,5.00
2015,10,23,00,15,4.90
2015,10,23,00,16,4.90
2015,10,23,00,17,4.90
2015,10,23,00,18,4.90
2015,10,23,00,19,4.90
2015,10,23,00,20,4.80
2015,10,23,00,21,4.80
2015,10,23,00,22,4.80
2015,10,23,00,23,4.80
2015,10,23,00,24,4.80
2015,10,23,00,25,4.70
2015,10,23,00,26,4.70
2015,10,23,00,27,4.70
2015,10,23,00,28,4.70
2015,10,23,00,29,4.70
2015,10,23,00,30,4.70
2015,10,23,00,31,4.70
2015,10,23,00,32,4.70
2015,10,23,00,33,4.70
2015,10,23,00,34,4.70
2015,10,23,00,35,4.70
2015,10,23,00,36,4.70
2015,10,23,00,37,4.70
2015,10,23,00,38,4.70
2015,10,23,00,39,4.70
2015,10,23,00,40,4.70
2015,10,23,00,41,4.70
2015,10,23,00,42,4.70
2015,10,23,00,43,4.80
2015,10,23,00,44,4.80
2015,10,23,00,45,4.80
2015,10,23,00,46,4.80
2015,10,23,00,47,4.70
2015,10,23,00,48,4.70
2015,10,23,00,49,4.70
2015,10,23,00,50,4.70
2015,10,23,00,51,4.70
2015,10,23,00,52,4.70
2015,10,23,00,53,4.70
2015,10,23,00,54,4.70
2015,10,23,00,55,4.70
2015,10,23,00,56,4.80
2015,10,23,00,57,4.80
2015,10,23,00,58,4.80
2015,10,23,00,59,4.80
2015,10,23,01,00,4.70
2015,10,23,01,01,4.70
2015,10,23,01,02,4.70
2015,10,23,01,03,4.70
2015,10,23,01,04,4.70
2015,10,23,01,05,4.70
2015,10,23,01,06,4.60
2015,10,23,01,07,4.60
2015,10,23,01,08,4.60
2015,10,23,01,09,4.60
2015,10,23,01,10,4.60
2015,10,23,01,11,4.60
2015,10,23,01,12,4.60
2015,10,23,01,13,4.60
2015,10,23,01,14,4.60
2015,10,23,01,15,4.60
2015,10,23,01,16,4.60
2015,10,23,01,17,4.60
2015,10,23,01,18,4.60
2015,10,23,01,19,4.60
2015,10,23,01,20,4.60
2015,10,23,01,21,4.70
2015,10,23,01,22,4.70
2015,10,23,01,23,4.70
2015,10,23,01,24,4.70
2015,10,23,01,25,4.70
2015,10,23,01,26,4.70
2015,10,23,01,27,4.70
2015,10,23,01,28,4.70
2015,10,23,01,29,4.60
2015,10,23,01,30,4.60
2015,10,23,01,31,4.60
2015,10,23,01,32,4.60
2015,10,23,01,33,4.70
2015,10,23,01,34,4.70
2015,10,23,01,35,4.70
2015,10,23,01,36,4.70
2015,10,23,01,37,4.70
2015,10,23,01,38,4.70
2015,10,23,01,39,4.60
2015,10,23,01,40,4.60
2015,10,23,01,41,4.60
2015,10,23,01,42,4.70
2015,10,23,01,43,4.70
2015,10,23,01,44,4.70
2015,10,23,01,45,4.70
2015,10,23,01,46,4.70
2015,10,23,01,47,4.80
2015,10,23,01,48,4.80
2015,10,23,01,49,4.70
2015,10,23,01,50,4.70
2015,10,23,01,51,4.70
2015,10,23,01,52,4.70
2015,10,23,01,53,4.70
2015,10,23,01,54,4.70
2015,10,23,01,55,4.70
2015,10,23,01,56,4.70
2015,10,23,01,57,4.70
2015,10,23,01,58,4.70
2015,10,23,01,59,4.70
2015,10,23,02,00,4.70
2015,10,23,02,01,4.70
2015,10,23,02,02,4.70
2015,10,23,02,03,4.70
2015,10,23,02,04,4.70
2015,10,23,02,05,4.70
2015,10,23,02,06,4.70
2015,10,23,02,07,4.70
2015,10,23,02,08,4.70
2015,10,23,02,09,4.70
2015,10,23,02,10,4.70
2015,10,23,02,11,4.70
2015,10,23,02,12,4.70
2015,10,23,02,13,4.70
2015,10,23,02,14,4.70
2015,10,23,02,15,4.70
2015,10,23,02,16,4.70
2015,10,23,02,17,4.70
2015,10,23,02,18,4.70
2015,10,23,02,19,4.70
2015,10,23,02,20,4.70
2015,10,23,02,21,4.70
2015,10,23,02,22,4.70
2015,10,23,02,23,4.70
2015,10,23,02,24,4.70
2015,10,23,02,25,4.70
2015,10,23,02,26,4.70
2015,10,23,02,27,4.70
2015,10,23,02,28,4.70
2015,10,23,02,29,4.70
2015,10,23,02,30,4.70
2015,10,23,02,31,4.70
2015,10,23,02,32,4.70
2015,10,23,02,33,4.70
2015,10,23,02,34,4.70
2015,10,23,02,35,4.70
2015,10,23,02,36,4.70
2015,10,23,02,37,4.70
2015,10,23,02,38,4.80
2015,10,23,02,39,4.80
2015,10,23,02,40,4.80
2015,10,23,02,41,4.80
2015,10,23,02,42,4.80
2015,10,23,02,43,4.80
2015,10,23,02,44,4.80
2015,10,23,02,45,4.90
2015,10,23,02,46,4.90
2015,10,23,02,47,4.90
2015,10,23,02,48,4.90
2015,10,23,02,49,4.90
2015,10,23,02,50,4.90
2015,10,23,02,51,4.90
2015,10,23,02,52,4.90
2015,10,23,02,53,4.90
2015,10,23,02,54,4.90
2015,10,23,02,55,4.90
2015,10,23,02,56,4.90
2015,10,23,02,57,4.90
2015,10,23,02,58,4.90
2015,10,23,02,59,4.90
2015,10,23,03,00,4.90
2015,10,23,03,01,4.90
2015,10,23,03,02,4.80
2015,10,23,03,03,4.80
2015,10,23,03,04,4.80
2015,10,23,03,05,4.80
2015,10,23,03,06,4.80
2015,10,23,03,07,4.80
2015,10,23,03,08,4.80
2015,10,23,03,09,4.80
2015,10,23,03,10,4.80
2015,10,23,03,11,4.80
2015,10,23,03,12,4.80
2015,10,23,03,13,4.80
2015,10,23,03,14,4.80
2015,10,23,03,15,4.80
2015,10,23,03,16,4.80
2015,10,23,03,17,4.90
2015,10,23,03,18,4.90
2015,10,23,03,19,4.90
2015,10,23,03,20,4.90
2015,10,23,03,21,4.90
2015,10,23,03,22,4.90
2015,10,23,03,23,4.80
2015,10,23,03,24,4.80
2015,10,23,03,25,4.80
2015,10,23,03,26,4.80
2015,10,23,03,27,4.80
2015,10,23,03,28,4.80
2015,10,23,03,29,4.80
2015,10,23,03,30,4.80
2015,10,23,03,31,4.80
2015,10,23,03,32,4.80
2015,10,23,03,33,4.80
2015,10,23,03,34,4.80
2015,10,23,03,35,4.70
2015,10,23,03,36,4.80
2015,10,23,03,37,4.80
2015,10,23,03,38,4.80
2015,10,23,03,39,4.80
2015,10,23,03,40,4.80
2015,10,23,03,41,4.80
2015,10,23,03,42,4.80
2015,10,23,03,43,4.80
2015,10,23,03,44,4.80
2015,10,23,03,45,4.80
2015,10,23,03,46,4.80
2015,10,23,03,47,4.80
2015,10,23,03,48,4.90
2015,10,23,03,49,4.90
2015,10,23,03,50,4.90
2015,10,23,03,51,4.90
2015,10,23,03,52,4.90
2015,10,23,03,53,5.00
2015,10,23,03,54,5.00
2015,10,23,03,55,5.00
2015,10,23,03,56,5.00
2015,10,23,03,57,4.90
2015,10,23,03,58,4.90
2015,10,23,03,59,4.90
2015,10,23,04,00,4.90
2015,10,23,04,01,4.90
2015,10,23,04,02,4.80
2015,10,23,04,03,4.80
2015,10,23,04,04,4.80
2015,10,23,04,05,4.80
2015,10,23,04,06,4.80
2015,10,23,04,07,4.80
2015,10,23,04,08,4.80
2015,10,23,04,09,4.80
2015,10,23,04,10,4.80
2015,10,23,04,11,4.80
2015,10,23,04,12,4.80
2015,10,23,04,13,4.80
2015,10,23,04,14,4.80
2015,10,23,04,15,4.80
2015,10,23,04,16,4.80
2015,10,23,04,17,4.80
2015,10,23,04,18,4.80
2015,10,23,04,19,4.80
2015,10,23,04,20,4.80
2015,10,23,04,21,4.80
2015,10,23,04,22,4.80
2015,10,23,04,23,4.80
2015,10,23,04,24,4.80
2015,10,23,04,25,4.90
2015,10,23,04,26,4.90
2015,10,23,04,27,4.90
2015,10,23,04,28,4.90
2015,10,23,04,29,4.90
2015,10,23,04,30,4.90
2015,10,23,04,31,4.90
2015,10,23,04,32,4.90
2015,10,23,04,33,4.90
2015,10,23,04,34,4.90
2015,10,23,04,35,4.90
2015,10,23,04,36,5.00
2015,10,23,04,37,5.00
2015,10,23,04,38,4.90
2015,10,23,04,39,4.90
2015,10,23,04,40,4.90
2015,10,23,04,41,4.90
2015,10,23,04,42,4.90
2015,10,23,04,43,4.90
2015,10,23,04,44,4.90
2015,10,23,04,45,4.80
2015,10,23,04,46,4.80
2015,10,23,04,47,4.80
2015,10,23,04,48,4.80
2015,10,23,04,49,4.80
2015,10,23,04,50,4.90
2015,10,23,04,51,4.90
2015,10,23,04,52,4.90
2015,10,23,04,53,5.00
2015,10,23,04,54,5.00
2015,10,23,04,55,5.10
2015,10,23,04,56,5.10
2015,10,23,04,57,5.20
2015,10,23,04,58,5.20
2015,10,23,04,59,5.20
2015,10,23,05,00,5.20
2015,10,23,05,01,5.30
2015,10,23,05,02,5.30
2015,10,23,05,03,5.30
2015,10,23,05,04,5.30
2015,10,23,05,05,5.30
2015,10,23,05,06,5.30
2015,10,23,05,07,5.30
2015,10,23,05,08,5.30
2015,10,23,05,09,5.30
2015,10,23,05,10,5.30
2015,10,23,05,11,5.30
2015,10,23,05,12,5.40
2015,10,23,05,13,5.40
2015,10,23,05,14,5.40
2015,10,23,05,15,5.40
2015,10,23,05,16,5.40
2015,10,23,05,17,5.40
2015,10,23,05,18,5.40
2015,10,23,05,19,5.40
2015,10,23,05,20,5.40
2015,10,23,05,21,5.30
2015,10,23,05,22,5.30
2015,10,23,05,23,5.30
2015,10,23,05,24,5.30
2015,10,23,05,25,5.20
2015,10,23,05,26,5.20
2015,10,23,05,27,5.20
2015,10,23,05,28,5.20
2015,10,23,05,29,5.20
2015,10,23,05,30,5.20
2015,10,23,05,31,5.20
2015,10,23,05,32,5.20
2015,10,23,05,33,5.20
2015,10,23,05,34,5.20
2015,10,23,05,35,5.20
2015,10,23,05,36,5.20
2015,10,23,05,37,5.20
2015,10,23,05,38,5.20
2015,10,23,05,39,5.10
2015,10,23,05,40,5.10
2015,10,23,05,41,5.10
2015,10,23,05,42,5.10
2015,10,23,05,43,5.20
2015,10,23,05,44,5.20
2015,10,23,05,45,5.20
2015,10,23,05,46,5.20
2015,10,23,05,47,5.20
2015,10,23,05,48,5.20
2015,10,23,05,49,5.20
2015,10,23,05,50,5.10
2015,10,23,05,51,5.10
2015,10,23,05,52,5.10
2015,10,23,05,53,5.00
2015,10,23,05,54,5.00
2015,10,23,05,55,5.00
2015,10,23,05,56,5.00
2015,10,23,05,57,4.90
2015,10,23,05,58,5.00
2015,10,23,05,59,5.00
2015,10,23,06,00,5.00
2015,10,23,06,01,4.90
2015,10,23,06,02,4.90
2015,10,23,06,03,4.90
2015,10,23,06,04,4.90
2015,10,23,06,05,5.00
2015,10,23,06,06,5.00
2015,10,23,06,07,5.00
2015,10,23,06,08,5.10
2015,10,23,06,09,5.10
2015,10,23,06,10,5.10
2015,10,23,06,11,5.10
2015,10,23,06,12,5.20
2015,10,23,06,13,5.20
2015,10,23,06,14,5.30
2015,10,23,06,15,5.30
2015,10,23,06,16,5.30
2015,10,23,06,17,5.30
2015,10,23,06,18,5.30
2015,10,23,06,19,5.30
2015,10,23,06,20,5.30
2015,10,23,06,21,5.30
2015,10,23,06,22,5.30
2015,10,23,06,23,5.30
2015,10,23,06,24,5.30
2015,10,23,06,25,5.30
2015,10,23,06,26,5.40
2015,10,23,06,27,5.40
2015,10,23,06,28,5.50
2015,10,23,06,29,5.60
2015,10,23,06,30,5.60
2015,10,23,06,31,5.70
2015,10,23,06,32,5.70
2015,10,23,06,33,5.70
2015,10,23,06,34,5.70
2015,10,23,06,35,5.70
2015,10,23,06,36,5.70
2015,10,23,06,37,5.70
2015,10,23,06,38,5.60
2015,10,23,06,39,5.60
2015,10,23,06,40,5.60
2015,10,23,06,41,5.60
2015,10,23,06,42,5.50
2015,10,23,06,43,5.50
2015,10,23,06,44,5.40
2015,10,23,06,45,5.40
2015,10,23,06,46,5.30
2015,10,23,06,47,5.30
2015,10,23,06,48,5.30
2015,10,23,06,49,5.30
2015,10,23,06,50,5.20
2015,10,23,06,51,5.20
2015,10,23,06,52,5.20
2015,10,23,06,53,5.20
2015,10,23,06,54,5.20
2015,10,23,06,55,5.20
2015,10,23,06,56,5.20
2015,10,23,06,57,5.20
2015,10,23,06,58,5.20
2015,10,23,06,59,5.20
2015,10,23,07,00,5.20
2015,10,23,07,01,5.20
2015,10,23,07,02,5.20
2015,10,23,07,03,5.20
2015,10,23,07,04,5.20
2015,10,23,07,05,5.20
2015,10,23,07,06,5.20
2015,10,23,07,07,5.20
2015,10,23,07,08,5.20
2015,10,23,07,09,5.20
2015,10,23,07,10,5.20
2015,10,23,07,11,5.20
2015,10,23,07,12,5.20
2015,10,23,07,13,5.20
2015,10,23,07,14,5.20
2015,10,23,07,15,5.30
2015,10,23,07,16,5.30
2015,10,23,07,17,5.30
2015,10,23,07,18,5.30
2015,10,23,07,19,5.20
2015,10,23,07,20,5.20
2015,10,23,07,21,5.20
2015,10,23,07,22,5.20
2015,10,23,07,23,5.20
2015,10,23,07,24,5.20
2015,10,23,07,25,5.20
2015,10,23,07,26,5.20
2015,10,23,07,27,5.20
2015,10,23,07,28,5.20
2015,10,23,07,29,5.20
2015,10,23,07,30,5.20
2015,10,23,07,31,5.20
2015,10,23,07,32,5.20
2015,10,23,07,33,5.20
2015,10,23,07,34,5.30
2015,10,23,07,35,5.30
2015,10,23,07,36,5.30
2015,10,23,07,37,5.30
2015,10,23,07,38,5.30
2015,10,23,07,39,5.30
2015,10,23,07,40,5.30
2015,10,23,07,41,5.30
2015,10,23,07,42,5.30
2015,10,23,07,43,5.30
2015,10,23,07,44,5.30
2015,10,23,07,45,5.30
2015,10,23,07,46,5.40
2015,10,23,07,47,5.40
2015,10,23,07,48,5.40
2015,10,23,07,49,5.40
2015,10,23,07,50,5.50
2015,10,23,07,51,5.60
2015,10,23,07,52,5.70
2015,10,23,07,53,5.90
2015,10,23,07,54,6.10
2015,10,23,07,55,6.20
2015,10,23,07,56,6.40
2015,10,23,07,57,6.60
2015,10,23,07,58,6.70
2015,10,23,07,59,6.80
2015,10,23,08,00,6.90
2015,10,23,08,01,6.90
2015,10,23,08,02,6.90
2015,10,23,08,03,7.00
2015,10,23,08,04,7.10
2015,10,23,08,05,7.10
2015,10,23,08,06,7.20
2015,10,23,08,07,7.20
2015,10,23,08,08,7.30
2015,10,23,08,09,7.30
2015,10,23,08,10,7.40
2015,10,23,08,11,7.40
2015,10,23,08,12,7.40
2015,10,23,08,13,7.50
2015,10,23,08,14,7.50
2015,10,23,08,15,7.60
2015,10,23,08,16,7.60
2015,10,23,08,17,7.60
2015,10,23,08,18,7.60
2015,10,23,08,19,7.70
2015,10,23,08,20,7.70
2015,10,23,08,21,7.70
2015,10,23,08,22,7.70
2015,10,23,08,23,7.70
2015,10,23,08,24,7.70
2015,10,23,08,25,7.80
2015,10,23,08,26,7.80
2015,10,23,08,27,7.80
2015,10,23,08,28,7.80
2015,10,23,08,29,7.80
2015,10,23,08,30,7.80
2015,10,23,08,31,7.80
2015,10,23,08,32,7.90
2015,10,23,08,33,7.90
2015,10,23,08,34,7.90
2015,10,23,08,35,7.90
2015,10,23,08,36,7.90
2015,10,23,08,37,7.90
2015,10,23,08,38,8.00
2015,10,23,08,39,8.00
2015,10,23,08,40,8.00
2015,10,23,08,41,8.00
2015,10,23,08,42,8.00
2015,10,23,08,43,8.00
2015,10,23,08,44,8.00
2015,10,23,08,45,8.10
2015,10,23,08,46,8.10
2015,10,23,08,47,8.10
2015,10,23,08,48,8.10
2015,10,23,08,49,8.10
2015,10,23,08,50,8.10
2015,10,23,08,51,8.10
2015,10,23,08,52,8.10
2015,10,23,08,53,8.10
2015,10,23,08,54,8.20
2015,10,23,08,55,8.20
2015,10,23,08,56,8.20
2015,10,23,08,57,8.20
2015,10,23,08,58,8.20
2015,10,23,08,59,8.20
2015,10,23,09,00,8.20
2015,10,23,09,01,8.30
2015,10,23,09,02,8.30
2015,10,23,09,03,8.30
2015,10,23,09,04,8.30
2015,10,23,09,05,8.30
2015,10,23,09,06,8.30
2015,10,23,09,07,8.30
2015,10,23,09,08,8.40
2015,10,23,09,09,8.40
2015,10,23,09,10,8.40
2015,10,23,09,11,8.40
2015,10,23,09,12,8.50
2015,10,23,09,13,8.50
2015,10,23,09,14,8.50
2015,10,23,09,15,8.60
2015,10,23,09,16,8.60
2015,10,23,09,17,8.60
2015,10,23,09,18,8.60
2015,10,23,09,19,8.60
2015,10,23,09,20,8.60
2015,10,23,09,21,8.60
2015,10,23,09,22,8.70
2015,10,23,09,23,8.70
2015,10,23,09,24,8.70
2015,10,23,09,25,8.70
2015,10,23,09,26,8.70
2015,10,23,09,27,8.70
2015,10,23,09,28,8.70
2015,10,23,09,29,8.70
2015,10,23,09,30,8.80
2015,10,23,09,31,8.80
2015,10,23,09,32,8.80
2015,10,23,09,33,8.80
2015,10,23,09,34,8.80
2015,10,23,09,35,8.80
2015,10,23,09,36,8.90
2015,10,23,09,37,8.90
2015,10,23,09,38,8.90
2015,10,23,09,39,8.90
2015,10,23,09,40,9.00
2015,10,23,09,41,9.00
2015,10,23,09,42,9.10
2015,10,23,09,43,9.10
2015,10,23,09,44,9.10
2015,10,23,09,45,9.10
2015,10,23,09,46,9.20
2015,10,23,09,47,9.20
2015,10,23,09,48,9.20
2015,10,23,09,49,9.30
2015,10,23,09,50,9.30
2015,10,23,09,51,9.30
2015,10,23,09,52,9.30
2015,10,23,09,53,9.40
2015,10,23,09,54,9.40
2015,10,23,09,55,9.40
2015,10,23,09,56,9.40
2015,10,23,09,57,9.40
2015,10,23,09,58,9.40
2015,10,23,09,59,9.40
2015,10,23,10,00,9.40
2015,10,23,10,01,9.40
2015,10,23,10,02,9.40
2015,10,23,10,03,9.40
2015,10,23,10,04,9.40
2015,10,23,10,05,9.50
2015,10,23,10,06,9.50
2015,10,23,10,07,9.50
2015,10,23,10,08,9.60
2015,10,23,10,09,9.60
2015,10,23,10,10,9.60
2015,10,23,10,11,9.60
2015,10,23,10,12,9.70
2015,10,23,10,13,9.70
2015,10,23,10,14,9.70
2015,10,23,10,15,9.80
2015,10,23,10,16,9.80
2015,10,23,10,17,9.80
2015,10,23,10,18,9.90
2015,10,23,10,19,9.90
2015,10,23,10,20,9.90
2015,10,23,10,21,10.00
2015,10,23,10,22,10.00
2015,10,23,10,23,10.10
2015,10,23,10,24,10.10
2015,10,23,10,25,10.10
2015,10,23,10,26,10.20
2015,10,23,10,27,10.20
2015,10,23,10,28,10.30
2015,10,23,10,29,10.30
2015,10,23,10,30,10.30
2015,10,23,10,31,10.30
2015,10,23,10,32,10.40
2015,10,23,10,33,10.40
2015,10,23,10,34,10.40
2015,10,23,10,35,10.50
2015,10,23,10,36,10.50
2015,10,23,10,37,10.60
2015,10,23,10,38,10.60
2015,10,23,10,39,10.70
2015,10,23,10,40,10.70
2015,10,23,10,41,10.70
2015,10,23,10,42,10.80
2015,10,23,10,43,10.80
2015,10,23,10,44,10.80
2015,10,23,10,45,10.80
2015,10,23,10,46,10.90
2015,10,23,10,47,10.90
2015,10,23,10,48,10.90
2015,10,23,10,49,10.90
2015,10,23,10,50,11.00
2015,10,23,10,51,11.00
2015,10,23,10,52,11.10
2015,10,23,10,53,11.10
2015,10,23,10,54,11.10
2015,10,23,10,55,11.20
2015,10,23,10,56,11.20
2015,10,23,10,57,11.20
2015,10,23,10,58,11.20
2015,10,23,10,59,11.30
2015,10,23,11,00,11.30
2015,10,23,11,01,11.40
2015,10,23,11,02,11.40
2015,10,23,11,03,11.40
2015,10,23,11,04,11.40
2015,10,23,11,05,11.50
2015,10,23,11,06,11.50
2015,10,23,11,07,11.50
2015,10,23,11,08,11.60
2015,10,23,11,09,11.60
2015,10,23,11,10,11.60
2015,10,23,11,11,11.60
2015,10,23,11,12,11.60
2015,10,23,11,13,11.70
2015,10,23,11,14,11.70
2015,10,23,11,15,11.70
2015,10,23,11,16,11.70
2015,10,23,11,17,11.80
2015,10,23,11,18,11.80
2015,10,23,11,19,11.90
2015,10,23,11,20,11.90
2015,10,23,11,21,12.00
2015,10,23,11,22,12.00
2015,10,23,11,23,12.10
2015,10,23,11,24,12.10
2015,10,23,11,25,12.10
2015,10,23,11,26,12.10
2015,10,23,11,27,12.10
2015,10,23,11,28,12.10
2015,10,23,11,29,12.10
2015,10,23,11,30,12.20
2015,10,23,11,31,12.20
2015,10,23,11,32,12.20
2015,10,23,11,33,12.20
2015,10,23,11,34,12.20
2015,10,23,11,35,12.20
2015,10,23,11,36,12.20
2015,10,23,11,37,12.30
2015,10,23,11,38,12.30
2015,10,23,11,39,12.30
2015,10,23,11,40,12.40
2015,10,23,11,41,12.40
2015,10,23,11,42,12.40
2015,10,23,11,43,12.50
2015,10,23,11,44,12.50
2015,10,23,11,45,12.60
2015,10,23,11,46,12.50
2015,10,23,11,47,12.50
2015,10,23,11,48,12.50
2015,10,23,11,49,12.50
2015,10,23,11,50,12.60
2015,10,23,11,51,12.60
2015,10,23,11,52,12.60
2015,10,23,11,53,12.60
2015,10,23,11,54,12.70
2015,10,23,11,55,12.70
2015,10,23,11,56,12.70
2015,10,23,11,57,12.70
2015,10,23,11,58,12.80
2015,10,23,11,59,12.80
2015,10,23,12,00,12.80
2015,10,23,12,01,12.70
2015,10,23,12,02,12.70
2015,10,23,12,03,12.70
2015,10,23,12,04,12.70
2015,10,23,12,05,12.70
2015,10,23,12,06,12.70
2015,10,23,12,07,12.70
2015,10,23,12,08,12.70
2015,10,23,12,09,12.70
2015,10,23,12,10,12.80
2015,10,23,12,11,12.80
2015,10,23,12,12,12.80
2015,10,23,12,13,12.80
2015,10,23,12,14,12.80
2015,10,23,12,15,12.80
2015,10,23,12,16,12.90
2015,10,23,12,17,12.90
2015,10,23,12,18,13.00
2015,10,23,12,19,13.00
2015,10,23,12,20,13.00
2015,10,23,12,21,13.00
2015,10,23,12,22,13.10
2015,10,23,12,23,13.10
2015,10,23,12,24,13.10
2015,10,23,12,25,13.10
2015,10,23,12,26,13.10
2015,10,23,12,27,13.10
2015,10,23,12,28,13.00
2015,10,23,12,29,13.00
2015,10,23,12,30,13.00
2015,10,23,12,31,13.10
2015,10,23,12,32,13.10
2015,10,23,12,33,13.10
2015,10,23,12,34,13.10
2015,10,23,12,35,13.10
2015,10,23,12,36,13.20
2015,10,23,12,37,13.20
2015,10,23,12,38,13.30
2015,10,23,12,39,13.30
2015,10,23,12,40,13.30
2015,10,23,12,41,13.30
2015,10,23,12,42,13.40
2015,10,23,12,43,13.40
2015,10,23,12,44,13.40
2015,10,23,12,45,13.40
2015,10,23,12,46,13.40
2015,10,23,12,47,13.40
2015,10,23,12,48,13.40
2015,10,23,12,49,13.40
2015,10,23,12,50,13.40
2015,10,23,12,51,13.40
2015,10,23,12,52,13.50
2015,10,23,12,53,13.50
2015,10,23,12,54,13.50
2015,10,23,12,55,13.60
2015,10,23,12,56,13.60
2015,10,23,12,57,13.60
2015,10,23,12,58,13.60
2015,10,23,12,59,13.50
2015,10,23,13,00,13.50
2015,10,23,13,01,13.50
2015,10,23,13,02,13.40
2015,10,23,13,03,13.40
2015,10,23,13,04,13.40
2015,10,23,13,05,13.40
2015,10,23,13,06,13.40
2015,10,23,13,07,13.40
2015,10,23,13,08,13.40
2015,10,23,13,09,13.40
2015,10,23,13,10,13.40
2015,10,23,13,11,13.50
2015,10,23,13,12,13.50
2015,10,23,13,13,13.50
2015,10,23,13,14,13.60
2015,10,23,13,15,13.60
2015,10,23,13,16,13.60
2015,10,23,13,17,13.60
2015,10,23,13,18,13.50
2015,10,23,13,19,13.50
2015,10,23,13,20,13.60
2015,10,23,13,21,13.60
2015,10,23,13,22,13.60
2015,10,23,13,23,13.60
2015,10,23,13,24,13.60
2015,10,23,13,25,13.60
2015,10,23,13,26,13.60
2015,10,23,13,27,13.60
2015,10,23,13,28,13.50
2015,10,23,13,29,13.50
2015,10,23,13,30,13.40
2015,10,23,13,31,13.40
2015,10,23,13,32,13.40
2015,10,23,13,33,13.30
2015,10,23,13,34,13.30
2015,10,23,13,35,13.20
2015,10,23,13,36,13.20
2015,10,23,13,37,13.10
2015,10,23,13,38,13.00
2015,10,23,13,39,12.90
2015,10,23,13,40,12.80
2015,10,23,13,41,12.70
2015,10,23,13,42,12.70
2015,10,23,13,43,12.60
2015,10,23,13,44,12.60
2015,10,23,13,45,12.50
2015,10,23,13,46,12.50
2015,10,23,13,47,12.40
2015,10,23,13,48,12.40
2015,10,23,13,49,12.40
2015,10,23,13,50,12.30
2015,10,23,13,51,12.30
2015,10,23,13,52,12.30
2015,10,23,13,53,12.30
2015,10,23,13,54,12.30
2015,10,23,13,55,12.30
2015,10,23,13,56,12.20
2015,10,23,13,57,12.20
2015,10,23,13,58,12.20
2015,10,23,13,59,12.20
2015,10,23,14,00,12.20
2015,10,23,14,01,12.20
2015,10,23,14,02,12.20
2015,10,23,14,03,12.10
2015,10,23,14,04,12.10
2015,10,23,14,05,12.10
2015,10,23,14,06,12.10
2015,10,23,14,07,12.10
2015,10,23,14,08,12.00
2015,10,23,14,09,12.00
2015,10,23,14,10,12.00
2015,10,23,14,11,11.90
2015,10,23,14,12,11.90
2015,10,23,14,13,11.80
2015,10,23,14,14,11.80
2015,10,23,14,15,11.80
2015,10,23,14,16,11.80
2015,10,23,14,17,11.70
2015,10,23,14,18,11.70
2015,10,23,14,19,11.70
2015,10,23,14,20,11.70
2015,10,23,14,21,11.60
2015,10,23,14,22,11.60
2015,10,23,14,23,11.60
2015,10,23,14,24,11.60
2015,10,23,14,25,11.60
2015,10,23,14,26,11.50
2015,10,23,14,27,11.50
2015,10,23,14,28,11.50
2015,10,23,14,29,11.50
2015,10,23,14,30,11.50
2015,10,23,14,31,11.50
2015,10,23,14,32,11.50
2015,10,23,14,33,11.50
2015,10,23,14,34,11.50
2015,10,23,14,35,11.50
2015,10,23,14,36,11.50
2015,10,23,14,37,11.50
2015,10,23,14,38,11.40
2015,10,23,14,39,11.40
2015,10,23,14,40,11.40
2015,10,23,14,41,11.40
2015,10,23,14,42,11.40
2015,10,23,14,43,11.40
2015,10,23,14,44,11.40
2015,10,23,14,45,11.40
2015,10,23,14,46,11.30
2015,10,23,14,47,11.30
2015,10,23,14,48,11.30
2015,10,23,14,49,11.20
2015,10,23,14,50,11.20
2015,10,23,14,51,11.20
2015,10,23,14,52,11.10
2015,10,23,14,53,11.10
2015,10,23,14,54,11.10
2015,10,23,14,55,11.00
2015,10,23,14,56,11.00
2015,10,23,14,57,11.00
2015,10,23,14,58,11.00
2015,10,23,14,59,11.00
2015,10,23,15,00,11.00
2015,10,23,15,01,11.00
2015,10,23,15,02,11.00
2015,10,23,15,03,10.90
2015,10,23,15,04,10.90
2015,10,23,15,05,10.90
2015,10,23,15,06,10.90
2015,10,23,15,07,10.90
2015,10,23,15,08,10.90
2015,10,23,15,09,10.90
2015,10,23,15,10,10.90
2015,10,23,15,11,10.90
2015,10,23,15,12,10.80
2015,10,23,15,13,10.80
2015,10,23,15,14,10.80
2015,10,23,15,15,10.80
2015,10,23,15,16,10.80
2015,10,23,15,17,10.80
2015,10,23,15,18,10.80
2015,10,23,15,19,10.80
2015,10,23,15,20,10.80
2015,10,23,15,21,10.80
2015,10,23,15,22,10.80
2015,10,23,15,23,10.80
2015,10,23,15,24,10.80
2015,10,23,15,25,10.80
2015,10,23,15,26,10.80
2015,10,23,15,27,10.80
2015,10,23,15,28,10.80
2015,10,23,15,29,10.80
2015,10,23,15,30,10.80
2015,10,23,15,31,10.80
2015,10,23,15,32,10.80
2015,10,23,15,33,10.80
2015,10,23,15,34,10.80
2015,10,23,15,35,10.80
2015,10,23,15,36,10.80
2015,10,23,15,37,10.80
2015,10,23,15,38,10.80
2015,10,23,15,39,10.80
2015,10,23,15,40,10.80
2015,10,23,15,41,10.80
2015,10,23,15,42,10.80
2015,10,23,15,43,10.80
2015,10,23,15,44,10.80
2015,10,23,15,45,10.80
2015,10,23,15,46,10.80
2015,10,23,15,47,10.90
2015,10,23,15,48,10.90
2015,10,23,15,49,10.90
2015,10,23,15,50,10.90
2015,10,23,15,51,10.90
2015,10,23,15,52,10.90
2015,10,23,15,53,10.90
2015,10,23,15,54,11.00
2015,10,23,15,55,11.00
2015,10,23,15,56,11.00
2015,10,23,15,57,11.00
2015,10,23,15,58,11.00
2015,10,23,15,59,11.00
2015,10,23,16,00,11.00
2015,10,23,16,01,11.10
2015,10,23,16,02,11.10
2015,10,23,16,03,11.10
2015,10,23,16,04,11.10
2015,10,23,16,05,11.10
2015,10,23,16,06,11.00
2015,10,23,16,07,11.00
2015,10,23,16,08,11.00
2015,10,23,16,09,11.00
2015,10,23,16,10,10.90
2015,10,23,16,11,10.90
2015,10,23,16,12,10.90
2015,10,23,16,13,10.90
2015,10,23,16,14,10.90
2015,10,23,16,15,10.90
2015,10,23,16,16,10.90
2015,10,23,16,17,10.90
2015,10,23,16,18,10.90
2015,10,23,16,19,10.90
2015,10,23,16,20,10.90
2015,10,23,16,21,10.90
2015,10,23,16,22,10.90
2015,10,23,16,23,10.80
2015,10,23,16,24,10.80
2015,10,23,16,25,10.80
2015,10,23,16,26,10.80
2015,10,23,16,27,10.80
2015,10,23,16,28,10.80
2015,10,23,16,29,10.80
2015,10,23,16,30,10.80
2015,10,23,16,31,10.80
2015,10,23,16,32,10.70
2015,10,23,16,33,10.70
2015,10,23,16,34,10.70
2015,10,23,16,35,10.70
2015,10,23,16,36,10.70
2015,10,23,16,37,10.70
2015,10,23,16,38,10.70
2015,10,23,16,39,10.60
2015,10,23,16,40,10.60
2015,10,23,16,41,10.60
2015,10,23,16,42,10.60
2015,10,23,16,43,10.60
2015,10,23,16,44,10.60
2015,10,23,16,45,10.60
2015,10,23,16,46,10.60
2015,10,23,16,47,10.60
2015,10,23,16,48,10.60
2015,10,23,16,49,10.60
2015,10,23,16,50,10.60
2015,10,23,16,51,10.60
2015,10,23,16,52,10.60
2015,10,23,16,53,10.60
2015,10,23,16,54,10.60
2015,10,23,16,55,10.60
2015,10,23,16,56,10.60
2015,10,23,16,57,10.50
2015,10,23,16,58,10.50
2015,10,23,16,59,10.50
2015,10,23,17,00,10.50
2015,10,23,17,01,10.50
2015,10,23,17,02,10.40
2015,10,23,17,03,10.40
2015,10,23,17,04,10.40
2015,10,23,17,05,10.40
2015,10,23,17,06,10.40
2015,10,23,17,07,10.40
2015,10,23,17,08,10.40
2015,10,23,17,09,10.30
2015,10,23,17,10,10.30
2015,10,23,17,11,10.30
2015,10,23,17,12,10.30
2015,10,23,17,13,10.30
2015,10,23,17,14,10.30
2015,10,23,17,15,10.30
2015,10,23,17,16,10.30
2015,10,23,17,17,10.30
2015,10,23,17,18,10.30
2015,10,23,17,19,10.30
2015,10,23,17,20,10.30
2015,10,23,17,21,10.30
2015,10,23,17,22,10.30
2015,10,23,17,23,10.20
2015,10,23,17,24,10.20
2015,10,23,17,25,10.20
2015,10,23,17,26,10.20
2015,10,23,17,27,10.20
2015,10,23,17,28,10.20
2015,10,23,17,29,10.20
2015,10,23,17,30,10.10
2015,10,23,17,31,10.10
2015,10,23,17,32,10.10
2015,10,23,17,33,10.10
2015,10,23,17,34,10.10
2015,10,23,17,35,10.10
2015,10,23,17,36,10.00
2015,10,23,17,37,10.00
2015,10,23,17,38,10.00
2015,10,23,17,39,9.90
2015,10,23,17,40,9.90
2015,10,23,17,41,9.90
2015,10,23,17,42,9.90
2015,10,23,17,43,9.90
2015,10,23,17,44,9.90
2015,10,23,17,45,9.90
2015,10,23,17,46,9.80